FW7499 Weather Reports


Display with metric or nautical units.
time (UTC)temp
F
wind
direction
speed
MPH
gust
MPH
rain 1hr
in
rain 24hr
in
rain mn
in
humidity
%
barometer
mb
20260901143509 82 240 0.0 2.0 0.00 0.00 0.00 61 1014.0
20260901143014 81 219 1.0 3.0 0.00 0.00 0.00 62 1014.1
20260901142507 81 169 0.0 3.0 0.00 0.00 0.00 67 1014.1
20260901142011 81 254 0.0 2.0 0.00 0.00 0.00 66 1014.1
20260901141523 80 286 1.0 3.0 0.00 0.00 0.00 66 1014.2
20260901141002 80 282 0.0 3.0 0.00 0.00 0.00 67 1014.2
20260901140509 80 182 0.0 2.0 0.00 0.00 0.00 70 1014.2
20260901140020 80 182 0.0 2.0 0.00 0.00 0.00 70 1014.1
20260901135516 79 220 0.0 2.0 0.00 0.00 0.00 73 1014.1
20260901135004 79 163 0.0 2.0 0.00 0.00 0.00 76 1014.1
20260901134522 78 136 0.0 2.0 0.00 0.00 0.00 74 1014.2
20260901134007 78 159 0.0 2.0 0.00 0.00 0.00 76 1014.1
20260901133503 77 78 0.0 2.0 0.00 0.00 0.00 78 1014.1
20260901133019 77 78 0.0 2.0 0.00 0.00 0.00 80 1014.1
20260901132511 76 78 0.0 2.0 0.00 0.00 0.00 81 1014.0
20260901132006 76 78 0.0 1.0 0.00 0.00 0.00 80 1014.1
20260901131506 76 78 0.0 1.0 0.00 0.00 0.00 81 1014.1
20260901131010 75 78 0.0 2.0 0.00 0.00 0.00 81 1014.2
20260901130515 76 78 0.0 2.0 0.00 0.00 0.00 81 1014.1
20260901130025 75 144 0.0 2.0 0.00 0.00 0.00 82 1014.1
20260901125509 75 139 0.0 2.0 0.00 0.00 0.00 83 1014.0
20260901125013 75 153 0.0 3.0 0.00 0.00 0.00 84 1014.0
20260901124519 74 169 0.0 3.0 0.00 0.00 0.00 82 1014.0
20260901124007 74 155 0.0 2.0 0.00 0.00 0.00 84 1013.9
20260901123507 74 187 0.0 2.0 0.00 0.00 0.00 84 1013.8
20260901123017 74 187 0.0 2.0 0.00 0.00 0.00 84 1013.8
20260901122508 73 187 0.0 2.0 0.00 0.00 0.00 84 1013.6
20260901122009 73 187 0.0 2.0 0.00 0.00 0.00 85 1013.6
20260901121514 73 187 0.0 2.0 0.00 0.00 0.00 85 1013.6
20260901121012 73 187 0.0 2.0 0.00 0.00 0.00 85 1013.4
20260901120509 73 187 0.0 1.0 0.00 0.00 0.00 85 1013.4
20260901120011 73 187 0.0 0.0 0.00 0.00 0.00 85 1013.4
20260901115513 73 187 0.0 0.0 0.00 0.00 0.00 85 1013.4
20260901115011 73 187 0.0 2.0 0.00 0.00 0.00 85 1013.4
20260901114517 73 187 0.0 2.0 0.00 0.00 0.00 85 1013.4
20260901114016 73 187 0.0 2.0 0.00 0.00 0.00 86 1013.4
20260901113512 73 187 0.0 2.0 0.00 0.00 0.00 86 1013.5
20260901113014 73 187 0.0 1.0 0.00 0.00 0.00 84 1013.4
20260901112507 73 187 0.0 0.0 0.00 0.00 0.00 86 1013.5
20260901112011 73 187 0.0 2.0 0.00 0.00 0.00 87 1013.5
20260901111514 73 187 0.0 2.0 0.00 0.00 0.00 87 1013.5
20260901111013 73 187 0.0 2.0 0.00 0.00 0.00 87 1013.6
20260901110509 74 187 0.0 2.0 0.00 0.00 0.00 86 1013.7
20260901110031 74 187 0.0 2.0 0.00 0.00 0.00 87 1013.6
20260901105512 74 187 0.0 2.0 0.00 0.00 0.00 86 1013.6
20260901105017 74 187 0.0 0.0 0.00 0.00 0.00 86 1013.5
20260901104531 74 187 0.0 1.0 0.00 0.00 0.00 86 1013.5
20260901104013 74 187 0.0 1.0 0.00 0.00 0.00 86 1013.6
20260901103510 74 187 0.0 1.0 0.00 0.00 0.00 86 1013.6
20260901103027 74 187 0.0 0.0 0.00 0.00 0.00 86 1013.6
20260901102515 75 187 0.0 0.0 0.00 0.00 0.00 86 1013.6
20260901102015 75 187 0.0 0.0 0.00 0.00 0.00 86 1013.7
20260901101525 75 187 0.0 2.0 0.00 0.00 0.00 86 1013.7
20260901101008 75 187 0.0 2.0 0.00 0.00 0.00 86 1013.7
20260901100503 75 187 0.0 2.0 0.00 0.00 0.00 86 1013.8
20260901100005 75 187 0.0 2.0 0.00 0.00 0.00 86 1013.8
20260901095505 75 187 0.0 0.0 0.00 0.00 0.00 86 1013.8
20260901095005 75 187 0.0 0.0 0.00 0.00 0.00 86 1013.9
20260901094507 75 187 0.0 0.0 0.00 0.00 0.00 86 1013.8
20260901094004 75 187 0.0 0.0 0.00 0.00 0.00 86 1013.8
20260901093503 76 187 0.0 2.0 0.00 0.00 0.00 85 1013.8
20260901093006 76 187 0.0 2.0 0.00 0.00 0.00 85 1013.8
20260901092504 76 187 0.0 3.0 0.00 0.00 0.00 85 1013.9
20260901092004 76 186 0.0 3.0 0.00 0.00 0.00 85 1013.8
20260901091508 76 236 0.0 2.0 0.00 0.00 0.00 85 1013.8
20260901091006 75 186 0.0 2.0 0.00 0.00 0.00 86 1013.8
20260901090506 75 186 0.0 2.0 0.00 0.00 0.00 87 1013.9
20260901090011 75 186 0.0 2.0 0.00 0.00 0.00 88 1013.9
20260901085505 75 186 0.0 2.0 0.00 0.00 0.00 88 1013.9
20260901085012 75 186 0.0 2.0 0.00 0.00 0.00 88 1013.8
20260901084508 75 186 0.0 2.0 0.00 0.00 0.00 88 1013.8
20260901084007 75 186 0.0 2.0 0.00 0.00 0.00 87 1013.8
20260901083507 75 186 0.0 2.0 0.00 0.00 0.00 87 1013.7
20260901083009 75 186 0.0 0.0 0.00 0.00 0.00 87 1013.7
20260901082506 75 186 0.0 0.0 0.00 0.00 0.00 87 1013.7
20260901082004 75 186 0.0 0.0 0.00 0.00 0.00 88 1013.8
20260901081511 75 186 0.0 2.0 0.00 0.00 0.00 88 1013.8
20260901081006 75 186 0.0 2.0 0.00 0.00 0.00 88 1013.8
20260901080507 75 186 0.0 2.0 0.00 0.00 0.00 88 1013.8
20260901080008 75 186 0.0 2.0 0.00 0.00 0.00 88 1013.9
20260901075509 75 197 0.0 2.0 0.00 0.00 0.00 89 1014.0
20260901075007 75 196 0.0 2.0 0.00 0.00 0.00 89 1014.0
20260901074512 74 197 0.0 0.0 0.00 0.00 0.00 89 1014.0
20260901074006 75 197 0.0 0.0 0.00 0.00 0.00 88 1013.9
20260901073507 75 197 0.0 0.0 0.00 0.00 0.00 88 1013.9
20260901073013 75 196 0.0 0.0 0.00 0.00 0.00 87 1013.9
20260901072508 75 197 0.0 0.0 0.00 0.00 0.00 88 1013.9
20260901072010 75 197 0.0 0.0 0.00 0.00 0.00 87 1013.9
20260901071523 75 196 0.0 0.0 0.00 0.00 0.00 87 1014.0
20260901071007 75 196 0.0 0.0 0.00 0.00 0.00 88 1014.0
20260901070508 75 196 0.0 0.0 0.00 0.00 0.00 88 1014.0
20260901070010 75 197 0.0 0.0 0.00 0.00 0.00 88 1014.0
20260901065536 75 196 0.0 0.0 0.00 0.00 0.00 88 1014.0
20260901065009 75 196 0.0 0.0 0.00 0.00 0.00 88 1013.9
20260901064511 75 196 0.0 0.0 0.00 0.00 0.00 88 1014.1
20260901064008 75 196 0.0 0.0 0.00 0.00 0.00 88 1014.1
20260901063507 75 197 0.0 0.0 0.00 0.00 0.00 88 1014.1
20260901063025 75 196 0.0 0.0 0.00 0.00 0.00 88 1014.1
20260901062511 75 197 0.0 0.0 0.00 0.00 0.00 88 1014.2
20260901062008 75 197 0.0 0.0 0.00 0.00 0.00 88 1014.2
20260901061518 75 196 0.0 0.0 0.00 0.00 0.00 88 1014.1
20260901061010 75 197 0.0 0.0 0.00 0.00 0.00 88 1014.2
20260901060508 75 196 0.0 0.0 0.00 0.00 0.00 87 1014.2
20260901060014 76 196 0.0 0.0 0.00 0.00 0.00 87 1014.2
20260901055511 76 196 0.0 0.0 0.00 0.00 0.00 87 1014.2
20260901055009 76 196 0.0 0.0 0.00 0.00 0.00 87 1014.3
20260901054517 76 196 0.0 0.0 0.00 0.00 0.00 87 1014.3
20260901054012 76 196 0.0 1.0 0.00 0.00 0.00 86 1014.3
20260901053510 76 197 0.0 2.0 0.00 0.00 0.00 86 1014.4
20260901053014 77 197 0.0 2.0 0.00 0.00 0.00 86 1014.3
20260901052509 77 196 0.0 2.0 0.00 0.00 0.00 86 1014.4
20260901052009 77 197 0.0 1.0 0.00 0.00 0.00 86 1014.4
20260901051514 77 197 0.0 0.0 0.00 0.00 0.00 85 1014.2
20260901051011 77 196 0.0 0.0 0.00 0.00 0.00 85 1014.2
20260901050514 77 197 0.0 0.0 0.00 0.00 0.00 85 1014.2
20260901050019 77 197 0.0 0.0 0.00 0.00 0.00 85 1014.2
20260901045512 77 196 0.0 0.0 0.00 0.00 0.00 85 1014.3
20260901045010 77 197 0.0 0.0 0.00 0.00 0.00 85 1014.3
20260901044519 77 196 0.0 0.0 0.00 0.00 0.00 85 1014.3
20260901044010 77 196 0.0 0.0 0.00 0.00 0.00 84 1014.2
20260901043510 77 197 0.0 0.0 0.00 0.00 0.00 84 1014.3
20260901043023 77 197 0.0 0.0 0.00 0.00 0.00 84 1014.2
20260901042511 78 196 0.0 0.0 0.00 0.00 0.00 83 1014.2
20260901042011 78 197 0.0 0.0 0.00 0.00 0.00 83 1014.2
20260901041519 78 197 0.0 0.0 0.00 0.00 0.00 82 1014.2
20260901041010 78 196 0.0 0.0 0.00 0.00 0.00 82 1014.3
20260901040511 78 196 0.0 0.0 0.00 0.00 0.00 81 1014.3
20260901040018 79 196 0.0 0.0 0.00 0.00 0.00 81 1014.3
20260901035513 78 197 0.0 0.0 0.00 0.00 0.00 82 1014.3
20260901035011 78 196 0.0 0.0 0.00 0.00 0.00 82 1014.2
20260901034518 78 197 0.0 0.0 0.00 0.00 0.00 82 1014.1
20260901034011 79 196 0.0 0.0 0.00 0.00 0.00 81 1014.1
20260901033512 79 197 0.0 0.0 0.00 0.00 0.00 81 1013.9
20260901033023 79 196 0.0 0.0 0.00 0.00 0.00 81 1014.0
20260901032514 79 197 0.0 0.0 0.00 0.00 0.00 80 1014.0
20260901032013 79 196 0.0 0.0 0.00 0.00 0.00 80 1014.0
20260901031521 79 196 0.0 0.0 0.00 0.00 0.00 80 1014.0
20260901031013 79 197 0.0 0.0 0.00 0.00 0.00 79 1014.1
20260901030513 79 196 0.0 0.0 0.00 0.00 0.00 79 1014.0
20260901030020 79 196 0.0 0.0 0.00 0.00 0.00 79 1013.9
20260901025511 79 197 0.0 0.0 0.00 0.00 0.00 79 1013.9
20260901025010 79 197 0.0 0.0 0.00 0.00 0.00 79 1013.8
20260901024515 79 196 0.0 0.0 0.00 0.00 0.00 79 1013.7
20260901024010 79 196 0.0 0.0 0.00 0.00 0.00 80 1013.6
20260901023503 79 196 0.0 0.0 0.00 0.00 0.00 80 1013.6
20260901023002 79 196 0.0 0.0 0.00 0.00 0.00 80 1013.6
20260901022509 79 196 0.0 0.0 0.00 0.00 0.00 79 1013.7
20260901022011 79 196 0.0 0.0 0.00 0.00 0.00 79 1013.7
20260901021508 80 197 0.0 0.0 0.00 0.00 0.00 79 1013.6
20260901021010 80 196 0.0 0.0 0.00 0.00 0.00 78 1013.5
20260901020507 80 196 0.0 0.0 0.00 0.00 0.00 77 1013.4
20260901020007 80 196 0.0 0.0 0.00 0.00 0.00 77 1013.4
20260901015507 80 196 0.0 0.0 0.00 0.00 0.00 76 1013.4
20260901015004 80 196 0.0 0.0 0.00 0.00 0.00 75 1013.3
20260901014503 80 196 0.0 0.0 0.00 0.00 0.00 76 1013.3
20260901014003 80 196 0.0 0.0 0.00 0.00 0.00 76 1013.2
20260901013503 81 197 0.0 0.0 0.00 0.00 0.00 76 1013.3
20260901013010 81 197 0.0 0.0 0.00 0.00 0.00 75 1013.2
20260901012506 81 196 0.0 0.0 0.00 0.00 0.00 75 1013.2
20260901012009 81 196 0.0 0.0 0.00 0.00 0.00 75 1013.2
20260901011519 81 196 0.0 0.0 0.00 0.00 0.00 76 1013.2
20260901011004 81 196 0.0 0.0 0.00 0.00 0.00 75 1013.3
20260901010507 82 197 0.0 0.0 0.00 0.00 0.00 75 1013.3
20260901010013 82 197 0.0 0.0 0.00 0.00 0.00 74 1013.3
20260901005514 82 196 0.0 0.0 0.00 0.00 0.00 74 1013.4
20260901005003 82 196 0.0 0.0 0.00 0.00 0.00 75 1013.4
20260901004527 82 197 0.0 0.0 0.00 0.00 0.00 74 1013.3
20260901004013 82 196 0.0 0.0 0.00 0.00 0.00 72 1013.4
20260901003503 82 197 0.0 0.0 0.00 0.00 0.00 73 1013.5
20260901003008 83 196 0.0 0.0 0.00 0.00 0.00 71 1013.4
20260901002506 83 196 0.0 0.0 0.00 0.00 0.00 72 1013.4
20260901002007 83 196 0.0 0.0 0.00 0.00 0.00 71 1013.4
20260901001519 83 196 0.0 0.0 0.00 0.00 0.00 71 1013.4
20260901001009 84 196 0.0 0.0 0.00 0.00 0.00 71 1013.4
20260901000511 84 197 0.0 0.0 0.00 0.00 0.00 73 1013.5
20260901000023 85 196 0.0 0.0 0.00 0.00 0.00 71 1013.5
20260831235507 84 196 0.0 0.0 0.00 0.00 0.00 72 1013.4
20260831235008 84 197 0.0 0.0 0.00 0.00 0.00 74 1013.4
20260831234524 84 197 0.0 0.0 0.00 0.00 0.00 70 1013.5
20260831234010 84 196 0.0 0.0 0.00 0.00 0.00 71 1013.5
20260831233510 84 197 0.0 0.0 0.00 0.00 0.00 72 1013.5
20260831233023 84 196 0.0 0.0 0.00 0.00 0.00 72 1013.6
20260831232504 85 197 0.0 0.0 0.00 0.00 0.00 72 1013.6
20260831232007 85 196 0.0 0.0 0.00 0.00 0.00 71 1013.5
20260831231511 85 197 0.0 0.0 0.00 0.00 0.00 69 1013.5
20260831231007 84 197 0.0 0.0 0.00 0.00 0.00 72 1013.4
20260831230509 85 196 0.0 2.0 0.00 0.00 0.00 69 1013.5
20260831230015 85 196 0.0 2.0 0.00 0.00 0.00 70 1013.4
20260831225512 85 196 0.0 2.0 0.00 0.00 0.00 70 1013.4
20260831225012 86 196 0.0 2.0 0.00 0.00 0.00 65 1013.4
20260831224508 86 196 0.0 2.0 0.00 0.00 0.00 67 1013.6
20260831224014 87 173 0.0 2.0 0.00 0.00 0.00 66 1013.4
20260831223512 88 170 0.0 2.0 0.00 0.00 0.00 66 1013.5
20260831223010 88 177 0.0 2.0 0.00 0.00 0.00 64 1013.5
20260831222508 87 188 0.0 2.0 0.00 0.00 0.00 64 1013.5
20260831222012 88 186 0.0 3.0 0.00 0.00 0.00 62 1013.5
20260831221535 88 286 1.0 2.0 0.00 0.00 0.00 61 1013.5
20260831221007 88 202 0.0 2.0 0.00 0.00 0.00 63 1013.5
20260831220509 87 180 0.0 2.0 0.00 0.00 0.00 64 1013.5
20260831220015 87 281 0.0 2.0 0.00 0.00 0.00 65 1013.6
20260831215511 87 38 0.0 2.0 0.00 0.00 0.00 69 1013.5
20260831215010 87 83 1.0 2.0 0.00 0.00 0.00 62 1013.5
20260831214539 88 255 0.0 2.0 0.00 0.00 0.00 62 1013.6
20260831214012 89 298 0.0 3.0 0.00 0.00 0.00 66 1013.6
20260831213514 89 153 1.0 3.0 0.00 0.00 0.00 62 1013.7
20260831213017 89 334 0.0 5.0 0.00 0.00 0.00 60 1013.8
20260831212510 89 313 0.0 6.0 0.00 0.00 0.00 64 1013.8
20260831212014 89 277 2.0 6.0 0.00 0.00 0.00 61 1013.7
20260831211514 88 188 0.0 4.0 0.00 0.00 0.00 63 1013.7
20260831211017 89 317 1.0 4.0 0.00 0.00 0.00 1013.7
20260831210516 89 352 2.0 4.0 0.00 0.00 0.00 62 1013.8
20260831210012 90 350 1.0 6.0 0.00 0.00 0.00 62 1013.8
20260831205511 89 249 3.0 6.0 0.00 0.00 0.00 64 1013.7
20260831205016 88 252 2.0 4.0 0.00 0.00 0.00 60 1013.7
20260831204516 89 314 2.0 4.0 0.00 0.00 0.00 61 1013.8
20260831204013 89 337 1.0 4.0 0.00 0.00 0.00 62 1013.8
20260831203518 89 342 1.0 4.0 0.00 0.00 0.00 59 1013.9
20260831203024 89 315 1.0 4.0 0.00 0.00 0.00 62 1014.0
20260831202514 88 268 1.0 4.0 0.00 0.00 0.00 61 1014.0
20260831202012 89 267 0.0 4.0 0.00 0.00 0.00 63 1014.0
20260831201534 89 180 1.0 8.0 0.00 0.00 0.00 61 1014.0
20260831201015 88 265 2.0 8.0 0.00 0.00 0.00 61 1014.1
20260831200507 89 297 1.0 4.0 0.00 0.00 0.00 60 1014.1
20260831200036 89 252 1.0 4.0 0.00 0.00 0.00 60 1014.0
20260831195512 89 254 2.0 5.0 0.00 0.00 0.00 59 1014.0
20260831195017 89 259 2.0 7.0 0.00 0.00 0.00 58 1014.0
20260831194514 90 325 1.0 6.0 0.00 0.00 0.00 60 1014.0
20260831194013 89 143 0.0 3.0 0.00 0.00 0.00 62 1014.1
20260831193510 89 331 1.0 3.0 0.00 0.00 0.00 61 1014.1
20260831193022 89 248 1.0 3.0 0.00 0.00 0.00 60 1014.0
20260831192514 89 242 1.0 5.0 0.00 0.00 0.00 62 1014.0
20260831192014 89 263 0.0 6.0 0.00 0.00 0.00 60 1013.9
20260831191528 89 257 2.0 6.0 0.00 0.00 0.00 59 1013.9
20260831191015 90 295 1.0 3.0 0.00 0.00 0.00 60 1013.9
20260831190515 90 337 1.0 2.0 0.00 0.00 0.00 62 1013.9
20260831190024 87 247 1.0 2.0 0.00 0.00 0.00 62 1013.9
20260831185516 87 360 1.0 2.0 0.00 0.00 0.00 62 1013.9
20260831185013 88 291 1.0 4.0 0.00 0.00 0.00 62 1014.0
20260831184521 88 167 0.0 4.0 0.00 0.00 0.00 63 1014.0
20260831184016 88 312 1.0 3.0 0.00 0.00 0.00 61 1014.0
20260831183511 89 321 1.0 3.0 0.00 0.00 0.00 60 1013.9
20260831183030 88 257 1.0 3.0 0.00 0.00 0.00 64 1013.9
20260831182515 89 19 2.0 3.0 0.00 0.00 0.00 61 1013.9
20260831182014 89 85 1.0 4.0 0.00 0.00 0.00 58 1013.9
20260831181524 89 351 1.0 4.0 0.00 0.00 0.00 60 1014.0
20260831181013 89 350 2.0 4.0 0.00 0.00 0.00 61 1013.9
20260831180509 89 330 1.0 3.0 0.00 0.00 0.00 63 1013.9
20260831180031 88 352 0.0 2.0 0.00 0.00 0.00 64 1014.0
20260831175513 87 9 0.0 3.0 0.00 0.00 0.00 61 1013.9
20260831175014 88 9 1.0 4.0 0.00 0.00 0.00 65 1014.0
20260831174529 86 23 1.0 4.0 0.00 0.00 0.00 63 1014.0
20260831174014 86 294 1.0 3.0 0.00 0.00 0.00 65 1014.0
20260831173515 84 170 1.0 3.0 0.00 0.00 0.00 66 1014.0
20260831173034 85 343 0.0 3.0 0.00 0.00 0.00 70 1013.9
20260831172517 85 350 1.0 3.0 0.00 0.00 0.00 66 1014.0
20260831172005 84 344 1.0 4.0 0.00 0.00 0.00 69 1014.0
20260831171508 85 5 2.0 4.0 0.00 0.00 0.00 66 1013.9
20260831171007 84 9 1.0 3.0 0.00 0.00 0.00 65 1013.9
20260831170503 85 15 1.0 3.0 0.00 0.00 0.00 67 1013.9
20260831170006 83 334 0.0 3.0 0.00 0.00 0.00 67 1013.8
20260831165504 85 14 1.0 4.0 0.00 0.00 0.00 67 1013.8
20260831165003 84 338 1.0 4.0 0.00 0.00 0.00 66 1013.8
20260831164507 85 360 2.0 4.0 0.00 0.00 0.00 66 1013.8
20260831164007 85 352 1.0 4.0 0.00 0.00 0.00 69 1013.7
20260831163508 84 344 2.0 4.0 0.00 0.00 0.00 68 1013.7
20260831163033 83 350 1.0 3.0 0.00 0.00 0.00 68 1013.7
20260831162502 82 331 1.0 3.0 0.00 0.00 0.00 69 1013.7
20260831162007 81 322 1.0 2.0 0.00 0.00 0.00 70 1013.7
20260831161514 81 360 2.0 3.0 0.00 0.00 0.00 69 1013.6
20260831161003 82 333 1.0 3.0 0.00 0.00 0.00 69 1013.5
20260831160507 82 316 1.0 4.0 0.00 0.00 0.00 70 1013.4
20260831160013 82 313 1.0 4.0 0.00 0.00 0.00 69 1013.4
20260831155515 82 328 1.0 4.0 0.00 0.00 0.00 71 1013.2
20260831155003 81 308 1.0 3.0 0.00 0.00 0.00 71 1013.0
20260831154521 81 321 0.0 4.0 0.00 0.00 0.00 72 1013.0
20260831154007 82 324 2.0 4.0 0.00 0.00 0.00 70 1013.0
20260831153505 82 360 1.0 4.0 0.00 0.00 0.00 71 1012.8
20260831153004 82 336 0.0 4.0 0.00 0.00 0.00 70 1013.0
20260831152512 81 325 1.0 4.0 0.00 0.00 0.00 73 1013.1
20260831152008 80 321 1.0 3.0 0.00 0.00 0.00 75 1013.1
20260831151521 79 360 1.0 2.0 0.00 0.00 0.00 78 1012.9
20260831151005 78 360 1.0 2.0 0.00 0.00 0.00 78 1013.0
20260831150508 78 360 0.0 2.0 0.00 0.00 0.00 79 1013.0
20260831150027 78 360 0.0 3.0 0.00 0.00 0.00 79 1013.0
20260831145505 78 360 1.0 3.0 0.00 0.00 0.00 80 1013.1
20260831145003 78 342 1.0 2.0 0.00 0.00 0.00 80 1013.2
20260831144524 77 88 0.0 2.0 0.00 0.00 0.00 81 1012.8
20260831144008 77 88 0.0 2.0 0.00 0.00 0.00 81 1012.6